Location: Poughquag
(41.6090°N, 73.6820°W)
Time: 12:02:32
(UTC-04:00)

A-11 Canister half - Pass Details

Date: 02 June 2020
Orbit: 1527 x 1682 km, 47.3° (Epoch: 06 July)

Event Time Altitude Azimuth Distance (km) Brightness Sun altitude
Rises 07:43:14 0° 238° (WSW) 4,672 11.0 23.7°
Reaches altitude 10° 07:46:15 10° 238° (WSW) 3,688 10.6 24.3°
Maximum altitude 07:55:33 85° 151° (SSE) 1,542 9.5 26.0°
Drops below altitude 10° 08:05:01 10° 65° (ENE) 3,748 12.4 27.8°
Sets 08:08:07 0° 65° (ENE) 4,751 12.6 28.4°
